iso_date,epoch_date,Year,Hour,Min,DOY,POS_DOY,Lat,Lon,BP,Ts,Ta,has_bp,has_ts,has_ta,BuoyID,Buoy_Type,Buoy_Owner,Logistics,Hemisphere
2014-07-28T16:00:28Z,1406563229,2014,16,0,209.667,209.625,80.6152,113.365,1007.0,0.73,-999.0,yes,yes,no,300234061660360,SVP-B,unknown,unknown,North
2014-07-28T16:59:31Z,1406566771,2014,17,0,209.708,209.625,80.6152,113.365,1007.0,0.63,-999.0,yes,yes,no,300234061660360,SVP-B,unknown,unknown,North
2014-07-28T18:00:00Z,1406570400,2014,18,0,209.75,209.75,80.6428,113.347,1006.7,0.62,-999.0,yes,yes,no,300234061660360,SVP-B,unknown,unknown,North
2014-07-28T19:00:28Z,1406574029,2014,19,0,209.792,209.75,80.6428,113.347,1006.4,0.75,-999.0,yes,yes,no,300234061660360,SVP-B,unknown,unknown,North
2014-07-28T19:59:31Z,1406577571,2014,20,0,209.833,209.75,80.6428,113.347,1006.3,0.71,-999.0,yes,yes,no,300234061660360,SVP-B,unknown,unknown,North
2014-07-28T21:00:00Z,1406581200,2014,21,0,209.875,209.875,80.665,113.3846,1006.2,0.8,-999.0,yes,yes,no,300234061660360,SVP-B,unknown,unknown,North
2014-07-28T22:00:28Z,1406584829,2014,22,0,209.917,209.875,80.665,113.3846,1006.1,0.88,-999.0,yes,yes,no,300234061660360,SVP-B,unknown,unknown,North
2014-07-28T22:59:31Z,1406588371,2014,23,0,209.958,209.875,80.665,113.3846,1006.1,0.96,-999.0,yes,yes,no,300234061660360,SVP-B,unknown,unknown,North
2014-07-29T00:00:00Z,1406592000,2014,0,0,210.0,210.0,80.679,113.381,1006.0,1.04,-999.0,yes,yes,no,300234061660360,SVP-B,unknown,unknown,North
2014-07-29T01:00:28Z,1406595629,2014,1,0,210.042,210.0,80.679,113.381,1005.4,1.14,-999.0,yes,yes,no,300234061660360,SVP-B,unknown,unknown,North
2014-07-29T01:59:31Z,1406599171,2014,2,0,210.083,210.0,80.679,113.381,1004.8,1.25,-999.0,yes,yes,no,300234061660360,SVP-B,unknown,unknown,North
2014-07-29T03:00:00Z,1406602800,2014,3,0,210.125,210.125,80.699,113.308,1004.6,1.24,-999.0,yes,yes,no,300234061660360,SVP-B,unknown,unknown,North
2014-07-29T04:00:28Z,1406606429,2014,4,0,210.167,210.125,80.699,113.308,1003.9,1.35,-999.0,yes,yes,no,300234061660360,SVP-B,unknown,unknown,North
2014-07-29T04:59:31Z,1406609971,2014,5,0,210.208,210.125,80.699,113.308,1003.4,1.48,-999.0,yes,yes,no,300234061660360,SVP-B,unknown,unknown,North
2014-07-29T06:00:00Z,1406613600,2014,6,0,210.25,210.25,80.7302,113.268,1002.9,1.47,-999.0,yes,yes,no,300234061660360,SVP-B,unknown,unknown,North
2014-07-29T07:00:28Z,1406617229,2014,7,0,210.292,210.25,80.7302,113.268,1002.5,1.43,-999.0,yes,yes,no,300234061660360,SVP-B,unknown,unknown,North
2014-07-29T07:59:31Z,1406620771,2014,8,0,210.333,210.25,80.7302,113.268,1002.3,1.32,-999.0,yes,yes,no,300234061660360,SVP-B,unknown,unknown,North
2014-07-29T09:00:00Z,1406624400,2014,9,0,210.375,210.375,80.7582,113.2982,1002.1,1.36,-999.0,yes,yes,no,300234061660360,SVP-B,unknown,unknown,North
2014-07-29T10:00:28Z,1406628029,2014,10,0,210.417,210.375,80.7582,113.2982,1001.7,1.4,-999.0,yes,yes,no,300234061660360,SVP-B,unknown,unknown,North
2014-07-29T10:59:31Z,1406631571,2014,11,0,210.458,210.375,80.7582,113.2982,1001.5,1.29,-999.0,yes,yes,no,300234061660360,SVP-B,unknown,unknown,North
2014-07-29T12:00:00Z,1406635200,2014,12,0,210.5,210.5,80.7788,113.3162,1001.5,1.3,-999.0,yes,yes,no,300234061660360,SVP-B,unknown,unknown,North
2014-07-29T13:00:28Z,1406638829,2014,13,0,210.542,210.5,80.7788,113.3162,1001.0,1.21,-999.0,yes,yes,no,300234061660360,SVP-B,unknown,unknown,North
2014-07-29T13:59:31Z,1406642371,2014,14,0,210.583,210.5,80.7788,113.3162,1000.7,1.18,-999.0,yes,yes,no,300234061660360,SVP-B,unknown,unknown,North
2014-07-29T15:00:00Z,1406646000,2014,15,0,210.625,210.625,80.8038,113.2832,1000.3,1.18,-999.0,yes,yes,no,300234061660360,SVP-B,unknown,unknown,North
2014-07-29T16:00:28Z,1406649629,2014,16,0,210.667,210.625,80.8038,113.2832,1000.1,1.09,-999.0,yes,yes,no,300234061660360,SVP-B,unknown,unknown,North
2014-07-29T16:59:31Z,1406653171,2014,17,0,210.708,210.625,80.8038,113.2832,999.8,1.19,-999.0,yes,yes,no,300234061660360,SVP-B,unknown,unknown,North
2014-07-29T18:00:00Z,1406656800,2014,18,0,210.75,210.75,80.8376,113.2806,999.5,1.2,-999.0,yes,yes,no,300234061660360,SVP-B,unknown,unknown,North
2014-07-29T19:00:28Z,1406660429,2014,19,0,210.792,210.75,80.8376,113.2806,999.6,1.35,-999.0,yes,yes,no,300234061660360,SVP-B,unknown,unknown,North
2014-07-29T19:59:31Z,1406663971,2014,20,0,210.833,210.75,80.8376,113.2806,999.4,1.14,-999.0,yes,yes,no,300234061660360,SVP-B,unknown,unknown,North
2014-07-29T21:00:00Z,1406667600,2014,21,0,210.875,210.875,80.8606,113.3536,999.2,1.09,-999.0,yes,yes,no,300234061660360,SVP-B,unknown,unknown,North
2014-07-29T22:00:28Z,1406671229,2014,22,0,210.917,210.875,80.8606,113.3536,999.7,1.13,-999.0,yes,yes,no,300234061660360,SVP-B,unknown,unknown,North
2014-07-29T22:59:31Z,1406674771,2014,23,0,210.958,210.875,80.8606,113.3536,999.7,1.14,-999.0,yes,yes,no,300234061660360,SVP-B,unknown,unknown,North
2014-07-30T00:00:00Z,1406678400,2014,0,0,211.0,211.0,80.8708,113.394,1000.0,1.12,-999.0,yes,yes,no,300234061660360,SVP-B,unknown,unknown,North
2014-07-30T01:00:28Z,1406682029,2014,1,0,211.042,211.0,80.8708,113.394,1000.3,1.09,-999.0,yes,yes,no,300234061660360,SVP-B,unknown,unknown,North
2014-07-30T01:59:31Z,1406685571,2014,2,0,211.083,211.0,80.8708,113.394,1000.3,1.19,-999.0,yes,yes,no,300234061660360,SVP-B,unknown,unknown,North
2014-07-30T03:00:00Z,1406689200,2014,3,0,211.125,211.125,80.8798,113.3812,1000.4,1.28,-999.0,yes,yes,no,300234061660360,SVP-B,unknown,unknown,North
2014-07-30T04:00:28Z,1406692829,2014,4,0,211.167,211.125,80.8798,113.3812,1000.8,1.5,-999.0,yes,yes,no,300234061660360,SVP-B,unknown,unknown,North
2014-07-30T04:59:31Z,1406696371,2014,5,0,211.208,211.125,80.8798,113.3812,1001.0,1.46,-999.0,yes,yes,no,300234061660360,SVP-B,unknown,unknown,North
2014-07-30T06:00:00Z,1406700000,2014,6,0,211.25,211.25,80.8906,113.3894,1001.3,1.45,-999.0,yes,yes,no,300234061660360,SVP-B,unknown,unknown,North
2014-07-30T07:00:28Z,1406703629,2014,7,0,211.292,211.25,80.8906,113.3894,1001.4,1.5,-999.0,yes,yes,no,300234061660360,SVP-B,unknown,unknown,North
2014-07-30T07:59:31Z,1406707171,2014,8,0,211.333,211.25,80.8906,113.3894,1001.7,1.62,-999.0,yes,yes,no,300234061660360,SVP-B,unknown,unknown,North
2014-07-30T09:00:00Z,1406710800,2014,9,0,211.375,211.375,80.8962,113.4228,1001.8,1.62,-999.0,yes,yes,no,300234061660360,SVP-B,unknown,unknown,North
2014-07-30T10:00:28Z,1406714429,2014,10,0,211.417,211.375,80.8962,113.4228,1002.0,1.45,-999.0,yes,yes,no,300234061660360,SVP-B,unknown,unknown,North
2014-07-30T10:59:31Z,1406717971,2014,11,0,211.458,211.375,80.8962,113.4228,1002.1,1.36,-999.0,yes,yes,no,300234061660360,SVP-B,unknown,unknown,North
2014-07-30T12:00:00Z,1406721600,2014,12,0,211.5,211.5,80.895,113.4234,1002.0,1.22,-999.0,yes,yes,no,300234061660360,SVP-B,unknown,unknown,North
2014-07-30T13:00:28Z,1406725229,2014,13,0,211.542,211.5,80.895,113.4234,1001.9,1.09,-999.0,yes,yes,no,300234061660360,SVP-B,unknown,unknown,North
2014-07-30T13:59:31Z,1406728771,2014,14,0,211.583,211.5,80.895,113.4234,1001.5,1.03,-999.0,yes,yes,no,300234061660360,SVP-B,unknown,unknown,North
2014-07-30T15:00:00Z,1406732400,2014,15,0,211.625,211.625,80.8978,113.384,1001.5,0.96,-999.0,yes,yes,no,300234061660360,SVP-B,unknown,unknown,North
2014-07-30T16:00:28Z,1406736029,2014,16,0,211.667,211.625,80.8978,113.384,1001.3,0.86,-999.0,yes,yes,no,300234061660360,SVP-B,unknown,unknown,North
2014-07-30T16:59:31Z,1406739571,2014,17,0,211.708,211.625,80.8978,113.384,1000.8,0.83,-999.0,yes,yes,no,300234061660360,SVP-B,unknown,unknown,North
2014-07-30T18:00:00Z,1406743200,2014,18,0,211.75,211.75,80.907,113.3654,1000.7,0.76,-999.0,yes,yes,no,300234061660360,SVP-B,unknown,unknown,North
2014-07-30T19:00:28Z,1406746829,2014,19,0,211.792,211.75,80.907,113.3654,1000.5,0.78,-999.0,yes,yes,no,300234061660360,SVP-B,unknown,unknown,North
2014-07-30T19:59:31Z,1406750371,2014,20,0,211.833,211.75,80.907,113.3654,1000.2,0.9,-999.0,yes,yes,no,300234061660360,SVP-B,unknown,unknown,North
2014-07-30T21:00:00Z,1406754000,2014,21,0,211.875,211.875,80.9128,113.39,999.9,1.02,-999.0,yes,yes,no,300234061660360,SVP-B,unknown,unknown,North
2014-07-30T22:00:28Z,1406757629,2014,22,0,211.917,211.875,80.9128,113.39,999.3,1.02,-999.0,yes,yes,no,300234061660360,SVP-B,unknown,unknown,North
2014-07-30T22:59:31Z,1406761171,2014,23,0,211.958,211.875,80.9128,113.39,999.1,1.04,-999.0,yes,yes,no,300234061660360,SVP-B,unknown,unknown,North
2014-07-31T00:00:00Z,1406764800,2014,0,0,212.0,212.0,80.9128,113.3838,998.7,1.39,-999.0,yes,yes,no,300234061660360,SVP-B,unknown,unknown,North
2014-07-31T01:00:28Z,1406768429,2014,1,0,212.042,212.0,80.9128,113.3838,998.2,1.32,-999.0,yes,yes,no,300234061660360,SVP-B,unknown,unknown,North
2014-07-31T01:59:31Z,1406771971,2014,2,0,212.083,212.0,80.9128,113.3838,998.1,1.14,-999.0,yes,yes,no,300234061660360,SVP-B,unknown,unknown,North
2014-07-31T03:00:00Z,1406775600,2014,3,0,212.125,212.125,80.9168,113.3422,997.7,1.18,-999.0,yes,yes,no,300234061660360,SVP-B,unknown,unknown,North
2014-07-31T04:00:28Z,1406779229,2014,4,0,212.167,212.125,80.9168,113.3422,997.3,1.06,-999.0,yes,yes,no,300234061660360,SVP-B,unknown,unknown,North
2014-07-31T04:59:31Z,1406782771,2014,5,0,212.208,212.125,80.9168,113.3422,996.7,1.19,-999.0,yes,yes,no,300234061660360,SVP-B,unknown,unknown,North
2014-07-31T06:00:00Z,1406786400,2014,6,0,212.25,212.25,80.923,113.3356,996.5,1.22,-999.0,yes,yes,no,300234061660360,SVP-B,unknown,unknown,North
2014-07-31T07:00:28Z,1406790029,2014,7,0,212.292,212.25,80.923,113.3356,996.6,1.21,-999.0,yes,yes,no,300234061660360,SVP-B,unknown,unknown,North
2014-07-31T07:59:31Z,1406793571,2014,8,0,212.333,212.25,80.923,113.3356,996.8,1.18,-999.0,yes,yes,no,300234061660360,SVP-B,unknown,unknown,North
2014-07-31T09:00:00Z,1406797200,2014,9,0,212.375,212.375,80.9206,113.3716,997.1,1.1,-999.0,yes,yes,no,300234061660360,SVP-B,unknown,unknown,North
2014-07-31T10:00:28Z,1406800829,2014,10,0,212.417,212.375,80.9206,113.3716,998.0,1.01,-999.0,yes,yes,no,300234061660360,SVP-B,unknown,unknown,North
2014-07-31T10:59:31Z,1406804371,2014,11,0,212.458,212.375,80.9206,113.3716,998.9,0.95,-999.0,yes,yes,no,300234061660360,SVP-B,unknown,unknown,North
2014-07-31T12:00:00Z,1406808000,2014,12,0,212.5,212.5,80.8994,113.4688,999.8,0.92,-999.0,yes,yes,no,300234061660360,SVP-B,unknown,unknown,North
2014-07-31T13:00:28Z,1406811629,2014,13,0,212.542,212.5,80.8994,113.4688,1000.5,0.87,-999.0,yes,yes,no,300234061660360,SVP-B,unknown,unknown,North
2014-07-31T13:59:31Z,1406815171,2014,14,0,212.583,212.5,80.8994,113.4688,1001.3,0.77,-999.0,yes,yes,no,300234061660360,SVP-B,unknown,unknown,North
2014-07-31T15:00:00Z,1406818800,2014,15,0,212.625,212.625,80.8718,113.5476,1002.3,0.8,-999.0,yes,yes,no,300234061660360,SVP-B,unknown,unknown,North
2014-07-31T16:00:28Z,1406822429,2014,16,0,212.667,212.625,80.8718,113.5476,1003.1,0.65,-999.0,yes,yes,no,300234061660360,SVP-B,unknown,unknown,North
2014-07-31T16:59:31Z,1406825971,2014,17,0,212.708,212.625,80.8718,113.5476,1004.0,0.77,-999.0,yes,yes,no,300234061660360,SVP-B,unknown,unknown,North
2014-07-31T18:00:00Z,1406829600,2014,18,0,212.75,212.75,80.8498,113.5988,1004.8,0.66,-999.0,yes,yes,no,300234061660360,SVP-B,unknown,unknown,North
2014-07-31T19:00:28Z,1406833229,2014,19,0,212.792,212.75,80.8498,113.5988,1005.6,0.57,-999.0,yes,yes,no,300234061660360,SVP-B,unknown,unknown,North
2014-07-31T19:59:31Z,1406836771,2014,20,0,212.833,212.75,80.8498,113.5988,1006.2,0.65,-999.0,yes,yes,no,300234061660360,SVP-B,unknown,unknown,North
2014-07-31T21:00:00Z,1406840400,2014,21,0,212.875,212.875,80.8394,113.6492,1006.9,0.82,-999.0,yes,yes,no,300234061660360,SVP-B,unknown,unknown,North
2014-07-31T22:00:28Z,1406844029,2014,22,0,212.917,212.875,80.8394,113.6492,1007.4,0.92,-999.0,yes,yes,no,300234061660360,SVP-B,unknown,unknown,North
2014-07-31T22:59:31Z,1406847571,2014,23,0,212.958,212.875,80.8394,113.6492,1007.8,1.45,-999.0,yes,yes,no,300234061660360,SVP-B,unknown,unknown,North
2014-08-01T00:00:00Z,1406851200,2014,0,0,213.0,213.0,80.8388,113.7218,1008.3,1.16,-999.0,yes,yes,no,300234061660360,SVP-B,unknown,unknown,North
2014-08-01T01:00:28Z,1406854829,2014,1,0,213.042,213.0,80.8388,113.7218,1008.6,1.17,-999.0,yes,yes,no,300234061660360,SVP-B,unknown,unknown,North
2014-08-01T01:59:31Z,1406858371,2014,2,0,213.083,213.0,80.8388,113.7218,1009.2,1.24,-999.0,yes,yes,no,300234061660360,SVP-B,unknown,unknown,North
2014-08-01T03:00:00Z,1406862000,2014,3,0,213.125,213.125,80.8356,113.816,1009.3,1.24,-999.0,yes,yes,no,300234061660360,SVP-B,unknown,unknown,North
2014-08-01T04:00:28Z,1406865629,2014,4,0,213.167,213.125,80.8356,113.816,1009.5,1.84,-999.0,yes,yes,no,300234061660360,SVP-B,unknown,unknown,North
2014-08-01T04:59:31Z,1406869171,2014,5,0,213.208,213.125,80.8356,113.816,1009.7,1.64,-999.0,yes,yes,no,300234061660360,SVP-B,unknown,unknown,North
2014-08-01T06:00:00Z,1406872800,2014,6,0,213.25,213.25,80.8344,113.8848,1009.9,1.73,-999.0,yes,yes,no,300234061660360,SVP-B,unknown,unknown,North
2014-08-01T07:00:28Z,1406876429,2014,7,0,213.292,213.25,80.8344,113.8848,1010.0,1.86,-999.0,yes,yes,no,300234061660360,SVP-B,unknown,unknown,North
2014-08-01T07:59:31Z,1406879971,2014,8,0,213.333,213.25,80.8344,113.8848,1010.2,2.11,-999.0,yes,yes,no,300234061660360,SVP-B,unknown,unknown,North
2014-08-01T09:00:00Z,1406883600,2014,9,0,213.375,213.375,80.8432,113.9776,1010.4,2.18,-999.0,yes,yes,no,300234061660360,SVP-B,unknown,unknown,North
2014-08-01T10:00:28Z,1406887229,2014,10,0,213.417,213.375,80.8432,113.9776,1010.7,2.17,-999.0,yes,yes,no,300234061660360,SVP-B,unknown,unknown,North
2014-08-01T10:59:31Z,1406890771,2014,11,0,213.458,213.375,80.8432,113.9776,1010.9,2.12,-999.0,yes,yes,no,300234061660360,SVP-B,unknown,unknown,North
2014-08-01T12:00:00Z,1406894400,2014,12,0,213.5,213.5,80.8502,114.112,1011.0,2.05,-999.0,yes,yes,no,300234061660360,SVP-B,unknown,unknown,North
2014-08-01T13:00:28Z,1406898029,2014,13,0,213.542,213.5,80.8502,114.112,1011.1,1.98,-999.0,yes,yes,no,300234061660360,SVP-B,unknown,unknown,North
2014-08-01T13:59:31Z,1406901571,2014,14,0,213.583,213.5,80.8502,114.112,1010.8,1.6,-999.0,yes,yes,no,300234061660360,SVP-B,unknown,unknown,North
2014-08-01T15:00:00Z,1406905200,2014,15,0,213.625,213.625,80.8526,114.2256,1010.8,1.36,-999.0,yes,yes,no,300234061660360,SVP-B,unknown,unknown,North
2014-08-01T16:00:28Z,1406908829,2014,16,0,213.667,213.625,80.8526,114.2256,1010.7,1.17,-999.0,yes,yes,no,300234061660360,SVP-B,unknown,unknown,North
2014-08-01T16:59:31Z,1406912371,2014,17,0,213.708,213.625,80.8526,114.2256,1010.5,1.04,-999.0,yes,yes,no,300234061660360,SVP-B,unknown,unknown,North
2014-08-01T18:00:00Z,1406916000,2014,18,0,213.75,213.75,80.8602,114.2986,1010.3,1.15,-999.0,yes,yes,no,300234061660360,SVP-B,unknown,unknown,North
2014-08-01T19:00:28Z,1406919629,2014,19,0,213.792,213.75,80.8602,114.2986,1009.9,1.07,-999.0,yes,yes,no,300234061660360,SVP-B,unknown,unknown,North
2014-08-01T19:59:31Z,1406923171,2014,20,0,213.833,213.75,80.8602,114.2986,1009.5,0.97,-999.0,yes,yes,no,300234061660360,SVP-B,unknown,unknown,North
2014-08-01T21:00:00Z,1406926800,2014,21,0,213.875,213.875,80.8786,114.3904,1009.0,0.94,-999.0,yes,yes,no,300234061660360,SVP-B,unknown,unknown,North
2014-08-01T22:00:28Z,1406930429,2014,22,0,213.917,213.875,80.8786,114.3904,1008.8,0.91,-999.0,yes,yes,no,300234061660360,SVP-B,unknown,unknown,North
2014-08-01T22:59:31Z,1406933971,2014,23,0,213.958,213.875,80.8786,114.3904,1008.5,0.88,-999.0,yes,yes,no,300234061660360,SVP-B,unknown,unknown,North
2014-08-02T00:00:00Z,1406937600,2014,0,0,214.0,214.0,80.898,114.536,1008.4,0.86,-999.0,yes,yes,no,300234061660360,SVP-B,unknown,unknown,North
2014-08-02T01:00:28Z,1406941229,2014,1,0,214.042,214.0,80.898,114.536,1008.3,0.89,-999.0,yes,yes,no,300234061660360,SVP-B,unknown,unknown,North
2014-08-02T01:59:31Z,1406944771,2014,2,0,214.083,214.0,80.898,114.536,1008.2,1.09,-999.0,yes,yes,no,300234061660360,SVP-B,unknown,unknown,North
2014-08-02T03:00:00Z,1406948400,2014,3,0,214.125,214.125,80.9122,114.7352,1008.2,1.02,-999.0,yes,yes,no,300234061660360,SVP-B,unknown,unknown,North
2014-08-02T04:00:28Z,1406952029,2014,4,0,214.167,214.125,80.9122,114.7352,1008.3,1.08,-999.0,yes,yes,no,300234061660360,SVP-B,unknown,unknown,North
2014-08-02T04:59:31Z,1406955571,2014,5,0,214.208,214.125,80.9122,114.7352,1008.5,1.08,-999.0,yes,yes,no,300234061660360,SVP-B,unknown,unknown,North
2014-08-02T06:00:00Z,1406959200,2014,6,0,214.25,214.25,80.9178,114.8676,1008.5,1.24,-999.0,yes,yes,no,300234061660360,SVP-B,unknown,unknown,North
2014-08-02T07:00:28Z,1406962829,2014,7,0,214.292,214.25,80.9178,114.8676,1008.4,1.32,-999.0,yes,yes,no,300234061660360,SVP-B,unknown,unknown,North
2014-08-02T07:59:31Z,1406966371,2014,8,0,214.333,214.25,80.9178,114.8676,1008.4,1.55,-999.0,yes,yes,no,300234061660360,SVP-B,unknown,unknown,North
2014-08-02T09:00:00Z,1406970000,2014,9,0,214.375,214.375,80.9314,114.932,1008.3,1.42,-999.0,yes,yes,no,300234061660360,SVP-B,unknown,unknown,North
2014-08-02T10:00:28Z,1406973629,2014,10,0,214.417,214.375,80.9314,114.932,1008.3,1.21,-999.0,yes,yes,no,300234061660360,SVP-B,unknown,unknown,North
2014-08-02T10:59:31Z,1406977171,2014,11,0,214.458,214.375,80.9314,114.932,1008.4,1.1,-999.0,yes,yes,no,300234061660360,SVP-B,unknown,unknown,North
2014-08-02T12:00:00Z,1406980800,2014,12,0,214.5,214.5,80.9566,115.0124,1008.2,1.03,-999.0,yes,yes,no,300234061660360,SVP-B,unknown,unknown,North
2014-08-02T13:00:28Z,1406984429,2014,13,0,214.542,214.5,80.9566,115.0124,1008.0,0.96,-999.0,yes,yes,no,300234061660360,SVP-B,unknown,unknown,North
2014-08-02T13:59:31Z,1406987971,2014,14,0,214.583,214.5,80.9566,115.0124,1007.8,0.94,-999.0,yes,yes,no,300234061660360,SVP-B,unknown,unknown,North
2014-08-02T15:00:00Z,1406991600,2014,15,0,214.625,214.625,80.9788,115.1456,1007.6,0.92,-999.0,yes,yes,no,300234061660360,SVP-B,unknown,unknown,North
2014-08-02T16:00:28Z,1406995229,2014,16,0,214.667,214.625,80.9788,115.1456,1007.2,0.88,-999.0,yes,yes,no,300234061660360,SVP-B,unknown,unknown,North
2014-08-02T16:59:31Z,1406998771,2014,17,0,214.708,214.625,80.9788,115.1456,1006.8,0.83,-999.0,yes,yes,no,300234061660360,SVP-B,unknown,unknown,North
2014-08-02T18:00:00Z,1407002400,2014,18,0,214.75,214.75,80.9906,115.2304,1006.5,0.81,-999.0,yes,yes,no,300234061660360,SVP-B,unknown,unknown,North
2014-08-02T19:00:28Z,1407006029,2014,19,0,214.792,214.75,80.9906,115.2304,1006.2,0.81,-999.0,yes,yes,no,300234061660360,SVP-B,unknown,unknown,North
2014-08-02T19:59:31Z,1407009571,2014,20,0,214.833,214.75,80.9906,115.2304,1005.6,0.81,-999.0,yes,yes,no,300234061660360,SVP-B,unknown,unknown,North
2014-08-02T21:00:00Z,1407013200,2014,21,0,214.875,214.875,81.0116,115.242,1005.1,0.78,-999.0,yes,yes,no,300234061660360,SVP-B,unknown,unknown,North
2014-08-02T22:00:28Z,1407016829,2014,22,0,214.917,214.875,81.0116,115.242,1004.5,0.81,-999.0,yes,yes,no,300234061660360,SVP-B,unknown,unknown,North
2014-08-02T22:59:31Z,1407020371,2014,23,0,214.958,214.875,81.0116,115.242,1004.1,0.93,-999.0,yes,yes,no,300234061660360,SVP-B,unknown,unknown,North
2014-08-03T00:00:00Z,1407024000,2014,0,0,215.0,215.0,81.0442,115.2766,1003.9,0.99,-999.0,yes,yes,no,300234061660360,SVP-B,unknown,unknown,North
2014-08-03T01:00:28Z,1407027629,2014,1,0,215.042,215.0,81.0442,115.2766,1003.6,0.99,-999.0,yes,yes,no,300234061660360,SVP-B,unknown,unknown,North
2014-08-03T01:59:31Z,1407031171,2014,2,0,215.083,215.0,81.0442,115.2766,1003.2,0.99,-999.0,yes,yes,no,300234061660360,SVP-B,unknown,unknown,North
2014-08-03T03:00:00Z,1407034800,2014,3,0,215.125,215.125,81.0712,115.359,1002.7,1.12,-999.0,yes,yes,no,300234061660360,SVP-B,unknown,unknown,North
2014-08-03T04:00:28Z,1407038429,2014,4,0,215.167,215.125,81.0712,115.359,1002.4,1.13,-999.0,yes,yes,no,300234061660360,SVP-B,unknown,unknown,North
2014-08-03T04:59:31Z,1407041971,2014,5,0,215.208,215.125,81.0712,115.359,1002.0,1.16,-999.0,yes,yes,no,300234061660360,SVP-B,unknown,unknown,North
2014-08-03T06:00:00Z,1407045600,2014,6,0,215.25,215.25,81.088,115.3962,1001.8,1.03,-999.0,yes,yes,no,300234061660360,SVP-B,unknown,unknown,North
2014-08-03T07:00:28Z,1407049229,2014,7,0,215.292,215.25,81.088,115.3962,1001.7,1.06,-999.0,yes,yes,no,300234061660360,SVP-B,unknown,unknown,North
2014-08-03T07:59:31Z,1407052771,2014,8,0,215.333,215.25,81.088,115.3962,1001.5,1.03,-999.0,yes,yes,no,300234061660360,SVP-B,unknown,unknown,North
2014-08-03T09:00:00Z,1407056400,2014,9,0,215.375,215.375,81.103,115.3976,1001.6,1.0,-999.0,yes,yes,no,300234061660360,SVP-B,unknown,unknown,North
2014-08-03T10:00:28Z,1407060029,2014,10,0,215.417,215.375,81.103,115.3976,1001.5,0.91,-999.0,yes,yes,no,300234061660360,SVP-B,unknown,unknown,North
2014-08-03T10:59:31Z,1407063571,2014,11,0,215.458,215.375,81.103,115.3976,1001.7,0.88,-999.0,yes,yes,no,300234061660360,SVP-B,unknown,unknown,North
2014-08-03T12:00:00Z,1407067200,2014,12,0,215.5,215.5,81.1154,115.4174,1002.0,0.84,-999.0,yes,yes,no,300234061660360,SVP-B,unknown,unknown,North
2014-08-03T13:00:28Z,1407070829,2014,13,0,215.542,215.5,81.1154,115.4174,1002.0,0.79,-999.0,yes,yes,no,300234061660360,SVP-B,unknown,unknown,North
2014-08-03T13:59:31Z,1407074371,2014,14,0,215.583,215.5,81.1154,115.4174,1002.3,0.86,-999.0,yes,yes,no,300234061660360,SVP-B,unknown,unknown,North
2014-08-03T15:00:00Z,1407078000,2014,15,0,215.625,215.625,81.1174,115.4694,1002.5,0.77,-999.0,yes,yes,no,300234061660360,SVP-B,unknown,unknown,North
2014-08-03T16:00:28Z,1407081629,2014,16,0,215.667,215.625,81.1174,115.4694,1002.6,0.73,-999.0,yes,yes,no,300234061660360,SVP-B,unknown,unknown,North
2014-08-03T16:59:31Z,1407085171,2014,17,0,215.708,215.625,81.1174,115.4694,1002.6,0.65,-999.0,yes,yes,no,300234061660360,SVP-B,unknown,unknown,North
2014-08-03T18:00:00Z,1407088800,2014,18,0,215.75,215.75,81.1048,115.5096,1002.9,0.59,-999.0,yes,yes,no,300234061660360,SVP-B,unknown,unknown,North
2014-08-03T19:00:28Z,1407092429,2014,19,0,215.792,215.75,81.1048,115.5096,1003.1,0.49,-999.0,yes,yes,no,300234061660360,SVP-B,unknown,unknown,North
2014-08-03T19:59:31Z,1407095971,2014,20,0,215.833,215.75,81.1048,115.5096,1003.0,0.49,-999.0,yes,yes,no,300234061660360,SVP-B,unknown,unknown,North
2014-08-03T21:00:00Z,1407099600,2014,21,0,215.875,215.875,81.0944,115.4818,1002.9,0.73,-999.0,yes,yes,no,300234061660360,SVP-B,unknown,unknown,North
2014-08-03T22:00:28Z,1407103229,2014,22,0,215.917,215.875,81.0944,115.4818,1002.9,0.89,-999.0,yes,yes,no,300234061660360,SVP-B,unknown,unknown,North
2014-08-03T22:59:31Z,1407106771,2014,23,0,215.958,215.875,81.0944,115.4818,1003.2,0.95,-999.0,yes,yes,no,300234061660360,SVP-B,unknown,unknown,North
2014-08-04T00:00:00Z,1407110400,2014,0,0,216.0,216.0,81.0908,115.4452,1002.9,1.14,-999.0,yes,yes,no,300234061660360,SVP-B,unknown,unknown,North
2014-08-04T01:00:28Z,1407114029,2014,1,0,216.042,216.0,81.0908,115.4452,1002.7,0.32,-999.0,yes,yes,no,300234061660360,SVP-B,unknown,unknown,North
2014-08-04T01:59:31Z,1407117571,2014,2,0,216.083,216.0,81.0908,115.4452,1002.5,0.13,-999.0,yes,yes,no,300234061660360,SVP-B,unknown,unknown,North
2014-08-04T03:00:00Z,1407121200,2014,3,0,216.125,216.125,81.0884,115.4206,1002.2,0.42,-999.0,yes,yes,no,300234061660360,SVP-B,unknown,unknown,North
2014-08-04T04:00:28Z,1407124829,2014,4,0,216.167,216.125,81.0884,115.4206,1002.2,0.85,-999.0,yes,yes,no,300234061660360,SVP-B,unknown,unknown,North
2014-08-04T04:59:31Z,1407128371,2014,5,0,216.208,216.125,81.0884,115.4206,1002.1,0.58,-999.0,yes,yes,no,300234061660360,SVP-B,unknown,unknown,North
2014-08-04T06:00:00Z,1407132000,2014,6,0,216.25,216.25,81.0864,115.4012,1002.0,0.89,-999.0,yes,yes,no,300234061660360,SVP-B,unknown,unknown,North
2014-08-04T07:00:28Z,1407135629,2014,7,0,216.292,216.25,81.0864,115.4012,1001.9,1.4,-999.0,yes,yes,no,300234061660360,SVP-B,unknown,unknown,North
2014-08-04T07:59:31Z,1407139171,2014,8,0,216.333,216.25,81.0864,115.4012,1001.8,1.71,-999.0,yes,yes,no,300234061660360,SVP-B,unknown,unknown,North
2014-08-04T09:00:00Z,1407142800,2014,9,0,216.375,216.375,81.0824,115.3946,1001.7,2.27,-999.0,yes,yes,no,300234061660360,SVP-B,unknown,unknown,North